Louisville Bowman, KY

10:37 AM EST on February 21, 2018 (GMT -0500)
Bowman

Weather History for KLOU - October, 2014

Change the Weather History Date:

Tuesday, October 21, 2014

  Actual Average Record
Temperature  
Mean Temperature 53 °F 57 °F  
Max Temperature 62 °F 67 °F 88 °F (1953)
Min Temperature 43 °F 46 °F 24 °F (1952)
Degree Days  
Heating Degree Days 12 9  
Month to date heating degree days 130 137  
Since 1 July heating degree days 162 173  
Cooling Degree Days 0 1  
Month to date cooling degree days 22 28  
Year to date cooling degree days 1534 1441  
Growing Degree Days 2 (Base 50)    
Moisture  
Dew Point 45 °F    
Average Humidity 75    
Maximum Humidity 100    
Minimum Humidity 49    
Precipitation  
Precipitation 0.00 in 0.10 in 0.41 in (1988)
Month to date precipitation 3.82 2.21  
Year to date precipitation 37.42 36.91  
Sea Level Pressure  
Sea Level Pressure 30.03 in    
Wind  
Wind Speed 4 mph (NNW)    
Max Wind Speed 16 mph    
Max Gust Speed 21 mph    
Visibility 6 miles    
Events Fog    
T = Trace of Precipitation, MM = Missing Value Source: NWS Daily Summary

Daily Weather History Graph

Daily Weather History Graph

Search for Another Location

Airport or City:

Trip Planner

Search our weather history database for the weather conditions in past years. The results will help you decide how hot, cold, wet, or windy it might be!

Date:

Astronomy

Oct. 21, 2014 Rise Set
Actual Time 7:57 AM EDT 6:56 PM EDT
Civil Twilight 7:30 AM EDT 7:23 PM EDT
Nautical Twilight 6:59 AM EDT 7:54 PM EDT
Astronomical Twilight 6:29 AM EDT 8:24 PM EDT
Moon 5:42 AM EDT 5:48 PM EDT
Length of Visible Light 11h 52m
Length of Day
10h 59m
Waning Crescent, 5% of the Moon is Illuminated
Oct 21
Waning Crescent
Oct 23
New
Oct 30
First Quarter
Nov 6
Full
Nov 14
Last Quarter

Hourly Weather History & Observations

Time (EDT) Temp. Dew Point Humidity Pressure Visibility Wind Dir Wind Speed Gust Speed Precip Events Conditions
12:30 AM 52.0 °F 51.1 °F 97% 29.95 in 0.5 mi Calm Calm - N/A Fog Fog
12:53 AM 52.0 °F 51.1 °F 97% 29.95 in 0.2 mi Calm Calm - N/A Fog Fog
1:25 AM 52.0 °F 50.0 °F 93% 29.95 in 2.0 mi WNW 3.5 mph - N/A   Clear
1:34 AM 50.0 °F 48.9 °F 96% 29.95 in 8.0 mi WNW 3.5 mph - N/A   Clear
1:53 AM 51.1 °F 50.0 °F 96% 29.96 in 10.0 mi WNW 5.8 mph - N/A   Clear
2:53 AM 50.0 °F 48.0 °F 93% 29.96 in 10.0 mi Calm Calm - N/A   Clear
3:51 AM 46.4 °F 46.4 °F 100% 29.97 in 1.8 mi Calm Calm - N/A   Clear
3:53 AM 46.0 °F 46.0 °F 100% 29.96 in 0.8 mi Calm Calm - N/A   Clear
4:31 AM 48.0 °F 46.9 °F 96% 29.97 in 0.8 mi WNW 3.5 mph - N/A   Mist
4:53 AM 46.0 °F 45.0 °F 96% 29.97 in 0.5 mi Calm Calm - N/A Fog Fog
5:03 AM 46.0 °F 45.0 °F 96% 29.98 in 1.0 mi Calm Calm - N/A   Clear
5:12 AM 46.9 °F 46.0 °F 97% 29.98 in 3.0 mi Calm Calm - N/A   Clear
5:16 AM 46.0 °F 45.0 °F 96% 29.98 in 1.5 mi Calm Calm - N/A   Partly Cloudy
5:19 AM 46.0 °F 45.0 °F 96% 29.98 in 0.8 mi Calm Calm - N/A   Mist
5:45 AM 46.0 °F 45.0 °F 96% 29.99 in 1.2 mi Calm Calm - N/A   Partly Cloudy
5:48 AM 44.6 °F 44.6 °F 100% 29.99 in 0.8 mi Calm Calm - N/A   Mist
5:53 AM 46.0 °F 44.1 °F 93% 29.99 in 0.5 mi Calm Calm - N/A Fog Fog
6:02 AM 45.0 °F 44.1 °F 97% 30.00 in 2.0 mi Calm Calm - N/A   Partly Cloudy
6:20 AM 46.0 °F 45.0 °F 96% 30.00 in 7.0 mi Calm Calm - N/A   Mostly Cloudy
6:37 AM 45.0 °F 44.1 °F 97% 30.00 in 1.8 mi Calm Calm - N/A   Scattered Clouds
6:48 AM 44.6 °F 42.8 °F 93% 30.00 in 3.0 mi Calm Calm - N/A   Scattered Clouds
6:53 AM 46.0 °F 44.1 °F 93% 30.01 in 7.0 mi Calm Calm - N/A   Mostly Cloudy
7:53 AM 46.9 °F 46.0 °F 97% 30.02 in 10.0 mi Calm Calm - N/A   Overcast
8:53 AM 50.0 °F 48.0 °F 93% 30.04 in 10.0 mi Calm Calm - N/A   Overcast
9:53 AM 53.1 °F 48.0 °F 83% 30.06 in 10.0 mi North 6.9 mph - N/A   Overcast
10:53 AM 54.0 °F 46.0 °F 75% 30.08 in 10.0 mi NNW 6.9 mph - N/A   Overcast
11:53 AM 57.0 °F 46.0 °F 67% 30.08 in 10.0 mi NNW 9.2 mph - N/A   Mostly Cloudy
12:53 PM 59.0 °F 43.0 °F 55% 30.08 in 10.0 mi NNW 9.2 mph - N/A   Scattered Clouds
1:53 PM 60.1 °F 41.0 °F 49% 30.07 in 10.0 mi NW 9.2 mph 17.3 mph N/A   Mostly Cloudy
2:53 PM 60.8 °F 42.8 °F 52% 30.06 in 10.0 mi North 11.5 mph 19.6 mph N/A   Overcast
3:53 PM 59.0 °F 43.0 °F 55% 30.08 in 10.0 mi NNW 8.1 mph 16.1 mph N/A   Overcast
4:53 PM 57.9 °F 39.0 °F 49% 30.10 in 10.0 mi North 10.4 mph - N/A   Overcast
5:53 PM 57.9 °F 39.9 °F 51% 30.11 in 10.0 mi North 5.8 mph - N/A   Overcast
6:53 PM 57.0 °F 39.9 °F 53% 30.12 in 10.0 mi North 5.8 mph - N/A   Overcast
7:53 PM 55.9 °F 41.0 °F 57% 30.13 in 10.0 mi Calm Calm - N/A   Overcast
8:53 PM 55.0 °F 43.0 °F 64% 30.14 in 10.0 mi Calm Calm - N/A   Overcast
9:53 PM 54.0 °F 43.0 °F 66% 30.15 in 10.0 mi Calm Calm - N/A   Overcast
10:53 PM 54.0 °F 43.0 °F 66% 30.16 in 10.0 mi North 3.5 mph - N/A   Overcast
11:53 PM 52.0 °F 42.1 °F 69% 30.18 in 10.0 mi NNE 4.6 mph - N/A   Scattered Clouds